User: anonymous   Login
Location: Peebles
(55.6412°N, 3.1714°W)
Time: 12:01:44
(UTC+00:00)
Language:

Lacrosse 4 Rocket - Orbit

View from above orbital plane
View from above orbital plane
View from above satellite
View from above satellite

Ground track
Ground track

The orbit data is extracted from the following two-line orbital elements,

1 26474U 00047B   21342.16049707  .00000281  00000-0  34902-4 0  9993
2 26474  67.9946  32.5176 0059085 321.0574  38.6318 14.96311720159906
Epoch (UTC): 08 December 2021 03:51:06
Eccentricity: 0.0059085
inclination: 67.9946°
perigee height: 537 km
apogee height: 619 km
right ascension of ascending node: 32.5176°
argument of perigee: 321.0574°
revolutions per day: 14.96311720
mean anomaly at epoch: 38.6318°
orbit number at epoch: 15990

The dashed part of the orbit path shows where the satellite is in the earth's shadow,  

DLR